Home   Weather   Edmundston   Past weeks

Flag for Canada Past Weather in Edmundston, New Brunswick, Canada — Yesterday and Last 2 Weeks

Now
29 °F

Chilly.


Feels Like: 23 °F
Forecast: 24 / 31 °F
Wind: 6 mph from Southwest

Location: St Leonard

Current Time: Dec 8, 2016 at 12:28:37 pm

Latest Report: Dec 8, 2016 at 12:00 pm


Visibility: N/A

Pressure: 29.74 "Hg

Humidity: 91%

Dew Point: 26 °F

Location of EdmundstonLocation

Past Weather in Edmundston — Graph

°F

Edmundston Temperature Yesterday

Maximum temperature yesterday: 22 °F (at 8:00 pm)
Minimum temperature yesterday: 7 °F (at 12:00 am)
Average temperature yesterday: 16 °F

High & Low Weather Summary for the Past Weeks

 TemperatureHumidityPressure
High35 °F (Nov 30, 3:00 pm)100% (Nov 24, 6:00 am)30.41 "Hg (Nov 24, 6:00 am)
Low6 °F (Dec 5, 7:00 am)75% (Nov 28, 3:00 pm)29.45 "Hg (Dec 1, 10:00 pm)
Average25 °F95%30.01 "Hg
* Reported Nov 23 11:00 am — Dec 8 11:00 am, Edmundston, Weather by CustomWeather, © 2016

Note: Actual official high and low records may vary slightly from our data, if they occured in-between our weather recording intervals... More about our weather records

Advertising

Edmundston Weather History for the Previous 24 Hours

Scroll right to see more
 ConditionsComfort  
Time TempWeatherWind HumidityBarometerVisibility
11:00 am
Thu, Dec 8
28 °FChilly.5 mph94%29.76 "HgN/A
10:00 am27 °FChilly.6 mph95%29.78 "HgN/A
9:00 am25 °FChilly.5 mph98%29.79 "HgN/A
8:00 am25 °FCold.5 mph98%29.80 "HgN/A
7:00 am23 °FCold.5 mph98%29.81 "HgN/A
6:00 am21 °FCold.5 mph97%29.82 "HgN/A
5:00 am20 °FCold.3 mph98%29.82 "HgN/A
4:00 am16 °FCold.3 mph96%29.84 "HgN/A
3:00 am20 °FCold.6 mph97%29.87 "HgN/A
2:00 am22 °FCold.5 mph98%29.87 "HgN/A
1:00 am24 °FCold.2 mph91%29.88 "HgN/A
12:00 am22 °FCold.3 mph98%29.87 "HgN/A
11:00 pm
Wed, Dec 7
21 °FCold.5 mph97%29.87 "HgN/A
10:00 pm21 °FCold.7 mph97%29.88 "HgN/A
9:00 pm21 °FCold.8 mph96%29.90 "HgN/A
8:00 pm22 °FCold.7 mph90%29.90 "HgN/A
7:00 pm20 °FCold.7 mph97%29.90 "HgN/A
6:00 pm20 °FCold.8 mph96%29.91 "HgN/A
5:00 pm19 °FCold.5 mph95%29.92 "HgN/A
4:00 pm19 °FCold.6 mph93%29.93 "HgN/A
3:00 pm19 °FCold.7 mph96%29.93 "HgN/A
2:00 pm19 °FCold.5 mph95%29.94 "HgN/A
1:00 pm18 °FCold.5 mph96%29.95 "HgN/A
12:00 pm17 °FCold.3 mph95%29.97 "HgN/A
Weather by CustomWeather, © 2016

See weather overviewHow to use our weather pages